Tracking 19709 objects as of 20-Jun-2019
HD Live streaming from Space Station
objects crossing your sky now

DELTA 1 DEB

Track DELTA 1 DEB now!
10-day predictions


NORAD ID: 12255
Int'l Code: 1978-026CY
Perigee: 887.9 km
Apogee: 908.4 km
Inclination: 98.7 °
Period: 102.8 minutes
Semi major axis: 7269 km
RCS: 0.0045 m2 (small)
Launch date: March 5, 1978
Source: United States (US)
Launch site: AIR FORCE WESTERN TEST RANGE (AFWTR)

Note: This is SATELLITE DEBRIS
aabbcc
Your satellite tracking list
Your tracking list is empty




NASA's NSSDC Master Catalog

Two Line Element Set (TLE):
1 12255U 78026CY  19170.45961758  .00000217  00000-0  17282-3 0  9994
2 12255  98.6713 167.3498 0014110 299.2937 214.3728 14.00809147271907
Source of the keplerian elements: AFSPC